Total_Precipitation_Accumulation
0.07 0.07 0.06 0.05 0.04 0.03 0.03 0.02 0.02 0.00 0.00 0.00 0.00 0.00 0.00 0.00 0.00 0.00 0.00 0.00 0.00 0.00 0.00 0.00 0.00 0.02 0.07 0.18 1.14 1.49 4.98 5.01 2.54 2.41 2.33 1.12 1.04 1.65 1.09 0.40 0.24 0.28 0.15 0.01 0.02
0.06 0.07 0.06 0.06 0.05 0.05 0.03 0.02 0.02 0.01 0.01 0.00 0.00 0.00 0.00 0.01 0.00 0.00 0.00 0.00 0.00 0.00 0.00 0.00 0.00 0.02 0.13 0.26 0.98 3.49 5.78 5.54 2.95 1.52 1.00 0.71 1.16 0.70 0.40 0.34 0.50 0.28 0.10 0.02 0.04
0.06 0.06 0.07 0.06 0.06 0.05 0.04 0.04 0.03 0.03 0.01 0.01 0.00 0.00 0.00 0.00 0.00 0.00 0.00 0.00 0.00 0.00 0.00 0.00 0.00 0.01 0.17 0.25 0.70 2.71 5.02 3.76 3.18 1.30 0.87 1.01 1.15 0.69 0.37 0.60 1.07 0.81 0.09 0.01 0.02
0.06 0.06 0.07 0.07 0.06 0.06 0.05 0.04 0.04 0.03 0.01 0.01 0.00 0.00 0.00 0.00 0.00 0.00 0.00 0.00 0.00 0.00 0.00 0.00 0.00 0.11 0.38 0.54 0.64 1.96 2.41 2.56 2.66 1.14 0.93 1.51 1.26 1.38 1.02 1.17 0.47 0.30 0.06 0.00 0.01
0.06 0.06 0.06 0.06 0.05 0.06 0.05 0.04 0.03 0.03 0.02 0.00 0.01 0.01 0.00 0.00 0.00 0.00 0.00 0.00 0.00 0.00 0.00 0.00 0.02 0.18 0.48 0.67 0.63 1.38 2.43 1.70 2.03 1.64 1.44 0.97 0.94 1.52 1.18 2.25 0.78 0.23 0.04 0.00 0.01
0.07 0.07 0.06 0.06 0.06 0.05 0.05 0.04 0.03 0.02 0.01 0.01 0.02 0.01 0.00 0.00 0.00 0.00 0.00 0.00 0.00 0.00 0.00 0.00 0.04 0.11 0.17 0.84 1.47 1.03 1.58 1.31 1.51 2.17 1.44 1.53 0.96 0.59 0.68 0.79 0.66 0.28 0.03 0.02 0.02
0.07 0.08 0.08 0.07 0.05 0.04 0.04 0.03 0.02 0.01 0.01 0.02 0.03 0.01 0.00 0.00 0.00 0.00 0.00 0.00 0.00 0.00 0.00 0.00 0.02 0.02 0.19 1.04 0.79 0.87 1.77 1.78 1.65 1.95 1.79 2.23 2.72 1.21 1.03 0.75 0.49 0.26 0.06 0.03 0.01
0.07 0.07 0.07 0.06 0.05 0.04 0.03 0.02 0.01 0.00 0.02 0.03 0.03 0.00 0.00 0.00 0.00 0.00 0.00 0.00 0.00 0.00 0.00 0.00 0.00 0.00 0.09 0.46 0.81 2.49 2.75 2.87 2.67 2.08 1.70 2.58 5.52 2.46 1.08 0.78 0.32 0.18 0.08 0.02 0.03
0.07 0.06 0.07 0.06 0.06 0.04 0.01 0.00 0.00 0.01 0.00 0.01 0.00 0.00 0.00 0.00 0.00 0.00 0.00 0.00 0.00 0.00 0.00 0.00 0.00 0.00 0.05 0.55 1.53 2.02 2.52 3.19 3.07 2.45 2.78 3.28 5.16 3.36 1.12 0.65 0.32 0.08 0.05 0.03 0.08
0.06 0.06 0.05 0.06 0.06 0.03 0.00 0.00 0.00 0.00 0.00 0.00 0.00 0.00 0.00 0.00 0.00 0.00 0.00 0.00 0.00 0.00 0.00 0.00 0.00 0.00 0.06 0.24 1.01 1.65 1.16 1.94 2.72 2.32 3.29 2.81 2.09 2.32 1.17 2.08 0.92 0.22 0.04 0.02 0.09
0.05 0.06 0.06 0.05 0.04 0.04 0.01 0.01 0.00 0.00 0.00 0.00 0.00 0.00 0.00 0.00 0.00 0.00 0.00 0.00 0.00 0.00 0.00 0.00 0.00 0.01 0.13 0.17 0.36 0.28 1.08 1.84 2.45 2.44 3.26 2.63 2.10 2.88 0.97 1.47 1.53 0.25 0.16 0.06 0.02
0.05 0.07 0.06 0.04 0.03 0.04 0.01 0.00 0.00 0.00 0.00 0.00 0.00 0.00 0.00 0.00 0.00 0.00 0.00 0.00 0.00 0.00 0.00 0.01 0.00 0.00 0.02 0.04 0.11 0.22 0.95 1.39 2.34 2.03 3.07 5.05 3.65 2.65 1.32 0.97 0.82 0.50 0.25 0.20 0.05
0.06 0.06 0.06 0.03 0.01 0.02 0.00 0.00 0.00 0.00 0.00 0.00 0.00 0.00 0.00 0.00 0.00 0.00 0.00 0.00 0.00 0.00 0.00 0.00 0.00 0.00 0.00 0.05 0.12 0.21 0.38 0.73 1.17 1.29 2.03 3.69 4.95 3.24 1.49 1.48 1.39 0.90 0.61 0.16 0.15
0.05 0.06 0.05 0.02 0.01 0.00 0.00 0.00 0.00 0.00 0.00 0.00 0.00 0.00 0.00 0.00 0.00 0.00 0.00 0.00 0.00 0.00 0.00 0.00 0.00 0.00 0.00 0.01 0.07 0.42 0.28 0.34 0.37 0.50 1.20 0.89 2.80 2.27 1.68 1.63 2.83 1.28 0.83 0.22 0.13
0.04 0.05 0.05 0.02 0.00 0.00 0.00 0.00 0.00 0.00 0.02 0.00 0.00 0.00 0.00 0.00 0.00 0.00 0.00 0.00 0.00 0.00 0.00 0.00 0.00 0.00 0.00 0.00 0.06 0.08 0.13 0.20 0.45 0.48 0.31 0.38 0.76 1.30 1.29 1.47 1.78 1.43 1.08 0.41 0.10
0.02 0.04 0.05 0.01 0.00 0.00 0.00 0.00 0.00 0.00 0.02 0.00 0.00 0.00 0.00 0.00 0.00 0.00 0.00 0.00 0.00 0.00 0.00 0.00 0.00 0.00 0.00 0.00 0.01 0.02 0.12 0.22 0.36 0.53 0.41 0.20 0.19 0.70 0.83 0.98 1.29 0.67 0.90 1.17 0.55
0.01 0.02 0.04 0.00 0.00 0.00 0.00 0.00 0.01 0.02 0.01 0.00 0.00 0.00 0.00 0.00 0.00 0.00 0.00 0.00 0.00 0.00 0.00 0.00 0.00 0.00 0.00 0.01 0.06 0.05 0.17 0.20 0.27 0.21 0.30 0.25 0.23 0.28 0.54 0.52 0.54 0.54 0.84 1.05 1.18
0.00 0.02 0.00 0.00 0.00 0.00 0.00 0.00 0.10 0.05 0.03 0.00 0.00 0.00 0.00 0.00 0.00 0.00 0.00 0.00 0.00 0.00 0.00 0.00 0.00 0.00 0.00 0.00 0.01 0.01 0.01 0.11 0.34 0.26 0.32 0.37 0.47 0.32 0.06 0.08 0.16 0.29 0.41 0.39 0.39
0.00 0.00 0.00 0.00 0.00 0.00 0.00 0.07 0.10 0.02 0.01 0.00 0.00 0.00 0.00 0.00 0.00 0.00 0.00 0.00 0.00 0.00 0.00 0.00 0.00 0.00 0.00 0.00 0.00 0.01 0.03 0.04 0.05 0.09 0.07 0.31 0.60 0.35 0.14 0.08 0.21 0.12 0.33 0.44 0.37
0.00 0.00 0.00 0.00 0.00 0.00 0.03 0.08 0.02 0.00 0.00 0.00 0.00 0.00 0.01 0.00 0.00 0.00 0.00 0.01 0.00 0.00 0.00 0.00 0.00 0.00 0.00 0.02 0.06 0.07 0.16 0.07 0.03 0.08 0.12 0.32 0.57 0.77 0.30 0.70 0.35 0.22 0.18 0.51 0.61
0.00 0.00 0.00 0.00 0.00 0.00 0.24 0.11 0.00 0.00 0.00 0.00 0.00 0.00 0.01 0.02 0.02 0.02 0.05 0.02 0.01 0.00 0.00 0.00 0.00 0.02 0.02 0.06 0.05 0.05 0.04 0.04 0.03 0.04 0.21 0.42 0.65 0.63 1.20 0.41 0.23 0.35 0.28 0.49 0.65
0.00 0.00 0.00 0.00 0.00 0.01 0.08 0.02 0.00 0.00 0.00 0.00 0.00 0.00 0.01 0.06 0.03 0.09 0.16 0.12 0.01 0.00 0.00 0.00 0.00 0.01 0.01 0.02 0.03 0.20 0.11 0.15 0.03 0.15 0.27 0.34 0.48 0.33 1.03 0.56 0.30 0.37 0.40 0.50 0.65
0.00 0.00 0.00 0.00 0.02 0.08 0.01 0.00 0.00 0.00 0.00 0.01 0.02 0.01 0.00 0.02 0.05 0.09 0.12 0.07 0.03 0.01 0.03 0.08 0.05 0.02 0.03 0.02 0.04 0.01 0.03 0.10 0.11 0.08 0.16 0.17 0.27 0.23 0.44 0.42 0.37 0.25 0.16 0.27 0.79
0.02 0.00 0.00 0.00 0.00 0.00 0.02 0.04 0.02 0.00 0.03 0.02 0.05 0.03 0.01 0.00 0.02 0.16 0.08 0.05 0.02 0.04 0.11 0.15 0.03 0.01 0.07 0.05 0.08 0.03 0.00 0.02 0.02 0.02 0.02 0.06 0.06 0.12 0.10 0.65 0.89 0.24 0.30 0.22 0.45
0.08 0.02 0.00 0.01 0.00 0.02 0.06 0.09 0.05 0.05 0.03 0.02 0.16 0.18 0.07 0.03 0.03 0.14 0.08 0.01 0.02 0.05 0.09 0.08 0.02 0.00 0.01 0.01 0.00 0.04 0.04 0.01 0.05 0.01 0.04 0.11 0.06 0.24 0.46 0.54 0.53 0.44 0.34 0.44 0.44
0.13 0.16 0.10 0.02 0.00 0.01 0.04 0.09 0.10 0.04 0.02 0.04 0.16 0.16 0.13 0.14 0.10 0.12 0.06 0.05 0.08 0.09 0.13 0.06 0.02 0.01 0.00 0.00 0.00 0.01 0.02 0.01 0.04 0.07 0.14 0.09 0.12 0.29 0.20 0.42 0.40 0.43 0.57 0.58 0.90
0.21 0.24 0.38 0.16 0.06 0.11 0.07 0.12 0.13 0.26 0.23 0.15 0.35 0.37 0.21 0.19 0.13 0.08 0.07 0.05 0.04 0.06 0.15 0.09 0.13 0.11 0.03 0.01 0.01 0.01 0.04 0.02 0.01 0.06 0.15 0.20 0.41 0.74 0.59 0.63 0.70 0.51 1.16 1.92 1.56